Date_and_time,latitude,longitude,wind_speed,RelWindDirFrom,WindDirFrom,air_pressure,air_temperature,relative_humidity,Temp,platform_speed_wrt_ground,air_pressure_at_mean_sea_level,platform_orientation
2018-10-24 23:50,50.6304333333333,-96.9807533333333,9.3,10.7,173,987.34,6.8,69,4.14,0.0,1014.41,36.6
2018-10-25 00:00,50.6304333333333,-96.9807533333333,5.9,8.5,185,987.41,7.4,63,4.14,0.0,1014.47,48.3
2018-10-25 00:10,50.6304333333333,-96.9807533333333,5.3,6.6,177,987.41,8.5,58,4.14,0.0,1014.42,48.3
2018-10-25 00:20,50.6304316666667,-96.9807533333333,6.0,6.5,176,987.36,8.1,61,4.14,0.0,1014.42,48.3
2018-10-25 00:30,50.6304116666667,-96.9807633333333,6.3,7.6,169,987.33,7.6,64,4.14,0.0,1014.44,48.3
2018-10-25 00:40,50.6304133333333,-96.980775,6.6,7.7,158,987.33,7.1,66,4.15,0.0,1014.47,48.3
2018-10-25 00:50,50.6304133333333,-96.9807766666667,5.0,6.9,164,987.37,6.7,70,4.15,0.0,1014.54,48.3
2018-10-25 01:00,50.6304133333333,-96.980775,3.7,4.6,159,987.36,6.0,77,4.15,0.0,1014.57,228.3
2018-10-25 01:10,50.6304133333333,-96.980775,3.4,4.7,161,987.29,5.8,79,4.15,0.0,1014.52,228.3
2018-10-25 01:20,50.6304416666667,-96.9807583333333,1.8,3.9,147,987.26,5.8,83,4.15,0.0,1014.48,228.3
2018-10-25 01:30,50.6304333333333,-96.9807566666667,2.9,4.8,155,987.16,5.6,83,4.15,0.0,1014.38,228.3
2018-10-25 01:40,50.6304316666667,-96.9807666666667,3.7,5.3,176,987.15,5.3,86,4.15,0.0,1014.38,228.3
2018-10-25 01:50,50.630435,-96.98077,2.9,4.5,161,987.24,5.3,87,4.16,0.0,1014.44,228.3
2018-10-25 02:00,50.630415,-96.98078,4.0,5.0,168,987.25,5.4,85,4.16,0.0,1014.39,243.3
2018-10-25 02:10,50.6304183333333,-96.9807766666667,4.8,5.8,163,987.26,5.8,80,4.16,0.0,1014.41,243.3
2018-10-25 02:20,50.6304166666667,-96.9807766666667,3.7,4.4,157,987.22,6.1,77,4.16,0.0,1014.37,243.3
2018-10-25 02:30,50.6304183333333,-96.9807733333333,3.1,4.0,155,987.12,6.1,77,4.16,0.0,1014.30,243.3
2018-10-25 02:40,50.6304183333333,-96.9807733333333,2.5,3.7,155,987.09,6.2,76,4.16,0.0,1014.28,243.3
2018-10-25 02:50,50.6304183333333,-96.9807716666667,4.0,5.6,142,987.12,6.7,71,4.17,0.0,1014.32,243.3
2018-10-25 03:00,50.6304183333333,-96.98077,6.4,7.9,159,987.04,6.9,67,4.17,0.0,1014.24,183.2
2018-10-25 03:10,50.6304183333333,-96.98077,5.9,6.7,172,987.00,6.9,66,4.17,0.0,1014.20,183.2
2018-10-25 03:20,50.6304183333333,-96.9807683333333,8.5,10.6,174,986.96,7.0,64,4.17,0.0,1014.16,183.2
2018-10-25 03:30,50.6304166666667,-96.9807666666667,10.2,12.0,172,986.88,6.7,69,4.18,0.0,1014.11,183.2
2018-10-25 03:40,50.6304166666667,-96.980765,8.8,10.9,169,986.80,6.2,73,4.19,0.0,1014.06,183.2
2018-10-25 03:50,50.6304216666667,-96.98075,7.9,10.5,162,986.78,6.0,74,4.19,0.0,1014.03,183.2
2018-10-25 04:00,50.630415,-96.9807683333333,6.8,9.2,167,986.72,5.8,76,4.19,0.0,1013.97,90.0
2018-10-25 04:10,50.6304033333333,-96.9807316666667,5.9,8.5,164,986.66,5.5,80,4.20,0.0,1013.90,90.0
2018-10-25 04:20,50.6304183333333,-96.980765,6.5,9.1,168,986.64,5.4,80,4.19,0.0,1013.88,90.0
2018-10-25 04:30,50.630415,-96.9807616666667,7.2,9.4,169,986.54,5.4,80,4.19,0.0,1013.79,90.0
2018-10-25 04:40,50.630415,-96.9807633333333,8.2,11.6,169,986.46,5.5,78,4.19,0.0,1013.67,90.0
2018-10-25 04:50,50.6304166666667,-96.980765,8.2,9.9,171,986.44,5.5,78,4.19,0.0,1013.64,90.0
2018-10-25 05:00,50.6304183333333,-96.9807666666667,8.4,9.9,175,986.39,5.2,81,4.19,0.0,1013.60,90.0
2018-10-25 05:10,50.6304383333333,-96.9807616666667,8.4,9.3,175,986.34,5.0,82,4.19,0.0,1013.56,90.0
2018-10-25 05:20,50.6304333333333,-96.9807716666667,8.7,10.3,178,986.26,5.0,82,4.20,0.0,1013.49,90.0
2018-10-25 05:30,50.630435,-96.9807666666667,8.6,9.7,177,986.19,5.0,81,4.20,0.0,1013.44,90.0
2018-10-25 05:40,50.6304333333333,-96.9807633333333,7.9,9.5,173,986.22,4.9,82,4.20,0.0,1013.48,90.0
2018-10-25 05:50,50.6304283333333,-96.9807683333333,6.9,8.4,173,986.22,4.9,82,4.20,0.0,1013.50,90.0
2018-10-25 06:00,50.6304283333333,-96.98077,7.0,8.1,173,986.11,4.8,83,4.20,0.0,1013.41,360.0
2018-10-25 06:10,50.6304283333333,-96.9807683333333,7.1,8.5,173,986.11,4.8,83,4.20,0.0,1013.40,360.0
2018-10-25 06:20,50.6304283333333,-96.9807633333333,7.0,8.3,174,986.17,4.9,82,4.20,0.0,1013.47,360.0
2018-10-25 06:30,50.6304266666667,-96.9807633333333,7.0,8.1,175,986.17,4.9,81,4.20,0.0,1013.46,360.0
2018-10-25 06:40,50.6304266666667,-96.9807633333333,6.9,8.0,176,986.16,4.8,81,4.20,0.0,1013.46,360.0
2018-10-25 06:50,50.6304233333333,-96.9808166666667,6.6,7.8,180,986.14,4.7,81,4.20,0.0,1013.45,360.0
2018-10-25 07:00,50.6304216666667,-96.9807766666667,6.4,7.9,174,986.12,4.5,82,4.20,0.0,1013.45,347.4
2018-10-25 07:10,50.6304133333333,-96.9807766666667,4.9,6.4,163,986.05,4.3,87,4.20,0.0,1013.39,347.4
2018-10-25 07:20,50.6304333333333,-96.98081,3.9,5.3,158,986.00,4.2,90,4.20,0.0,1013.35,347.4
2018-10-25 07:30,50.6304116666667,-96.98075,5.1,6.2,150,986.02,4.3,88,4.20,0.0,1013.36,347.4
2018-10-25 07:40,50.6304216666667,-96.98077,4.3,6.0,144,986.00,4.5,89,4.20,0.0,1013.34,347.4
2018-10-25 07:50,50.6304183333333,-96.9807716666667,7.4,8.9,130,985.99,4.9,90,4.20,0.0,1013.31,347.4
2018-10-25 08:00,50.6304166666667,-96.9807716666667,7.7,8.7,130,985.98,4.8,89,4.20,0.0,1013.30,270.0
2018-10-25 08:10,50.6303966666667,-96.9807716666667,7.8,9.2,131,985.94,4.9,89,4.20,0.0,1013.26,270.0
2018-10-25 08:20,50.6304016666667,-96.9807433333333,8.4,9.6,128,985.88,4.9,87,4.20,0.0,1013.19,270.0
2018-10-25 08:30,50.630415,-96.9807583333333,8.0,8.9,129,985.84,5.1,86,4.20,0.0,1013.15,270.0
2018-10-25 08:40,50.6304183333333,-96.980755,8.1,8.9,131,985.77,5.1,85,4.20,0.0,1013.08,270.0
2018-10-25 08:50,50.63042,-96.9807566666667,7.3,8.5,125,985.74,4.9,88,4.20,0.0,1013.07,270.0
2018-10-25 09:00,50.6304233333333,-96.9807583333333,7.2,8.4,118,985.73,4.7,90,4.20,0.0,1013.08,90.0
2018-10-25 09:10,50.6304233333333,-96.9807566666667,7.5,8.9,116,985.71,4.7,90,4.20,0.0,1013.06,90.0
2018-10-25 09:20,50.630425,-96.9807583333333,7.1,8.5,107,985.77,4.6,89,4.20,0.0,1013.12,90.0
2018-10-25 09:30,50.6304266666667,-96.9807566666667,6.1,7.7,98,985.74,4.6,89,4.20,0.0,1013.08,90.0
2018-10-25 09:40,50.6304266666667,-96.980755,7.5,9.3,100,985.72,4.6,88,4.20,0.0,1013.04,90.0
2018-10-25 09:50,50.6304266666667,-96.9807566666667,7.4,9.1,99,985.69,4.6,88,4.20,0.0,1013.01,90.0
2018-10-25 10:00,50.6304283333333,-96.9807583333333,6.7,8.8,97,985.70,4.6,90,4.19,0.0,1013.03,60.8
2018-10-25 10:10,50.6304283333333,-96.98076,9.6,11.2,103,985.60,4.7,87,4.19,0.0,1012.91,60.8
2018-10-25 10:20,50.63043,-96.98076,9.3,10.7,104,985.60,4.8,87,4.18,0.0,1012.90,60.8
2018-10-25 10:30,50.6304166666667,-96.9807783333333,7.4,9.5,101,985.69,4.7,87,4.18,0.0,1013.00,60.8
2018-10-25 10:40,50.63041,-96.9807466666667,6.4,8.1,96,985.75,4.7,86,4.18,0.0,1013.07,60.8
2018-10-25 10:50,50.63042,-96.9807566666667,7.4,8.9,102,985.78,4.7,85,4.18,0.0,1013.10,60.8
2018-10-25 11:00,50.6304233333333,-96.9807533333333,7.7,9.5,103,985.80,4.7,86,4.18,0.0,1013.13,42.8
2018-10-25 11:10,50.630425,-96.9807566666667,7.9,9.2,106,985.77,4.6,86,4.18,0.0,1013.10,42.8
2018-10-25 11:20,50.630425,-96.9807583333333,8.0,9.1,105,985.70,4.5,87,4.18,0.0,1013.04,42.8
2018-10-25 11:30,50.6304266666667,-96.98076,8.3,9.7,108,985.69,4.5,88,4.18,0.0,1013.04,42.8
2018-10-25 11:40,50.63043,-96.9807433333333,7.7,9.1,104,985.69,4.4,88,4.18,0.0,1013.03,42.8
2018-10-25 11:50,50.6304233333333,-96.98075,7.3,8.6,101,985.66,4.4,89,4.18,0.0,1013.01,42.8
2018-10-25 12:00,50.6304316666667,-96.9807566666667,7.5,8.9,102,985.63,4.3,89,4.18,0.0,1012.97,38.0
2018-10-25 12:10,50.6304166666667,-96.98076,7.8,9.3,101,985.61,4.3,90,4.17,0.0,1012.95,38.0
2018-10-25 12:20,50.6304133333333,-96.98075,8.0,9.6,102,985.61,4.3,88,4.17,0.0,1012.95,38.0
2018-10-25 12:30,50.6304166666667,-96.9807483333333,6.3,8.5,96,985.60,4.3,89,4.17,0.0,1012.94,38.0
2018-10-25 12:40,50.63042,-96.9807516666667,6.8,8.3,94,985.62,4.3,89,4.17,0.0,1012.96,38.0
2018-10-25 12:50,50.6304183333333,-96.9807533333333,7.9,9.2,101,985.61,4.3,88,4.17,0.0,1012.96,38.0
2018-10-25 13:00,50.6304183333333,-96.9807533333333,7.5,8.9,101,985.60,4.3,89,4.17,0.0,1012.95,165.5
2018-10-25 13:10,50.6304266666667,-96.98078,7.0,8.2,98,985.59,4.3,88,4.17,0.0,1012.95,165.5
2018-10-25 13:20,50.6304283333333,-96.98077,7.8,9.5,100,985.56,4.3,88,4.17,0.0,1012.91,165.5
2018-10-25 13:30,50.6304266666667,-96.9807683333333,7.8,9.6,101,985.60,4.3,88,4.17,0.0,1012.95,165.5
2018-10-25 13:40,50.6304333333333,-96.980775,6.9,8.5,99,985.65,4.3,88,4.17,0.0,1013.01,165.5
2018-10-25 13:50,50.6304316666667,-96.9807683333333,7.1,8.8,100,985.69,4.3,88,4.18,0.0,1013.06,165.5
2018-10-25 14:00,50.6304316666667,-96.980765,7.8,9.5,102,985.73,4.3,89,4.18,0.0,1013.09,299.2
2018-10-25 14:10,50.6304333333333,-96.9807666666667,7.0,9.2,99,985.74,4.5,88,4.18,0.0,1013.10,299.2
2018-10-25 14:20,50.6304333333333,-96.9807633333333,6.9,8.2,98,985.62,4.7,87,4.18,0.0,1012.96,299.2
2018-10-25 14:30,50.63042,-96.9807466666667,6.4,8.3,96,985.59,5.0,86,4.18,0.0,1012.92,299.2
2018-10-25 14:40,50.630425,-96.9807466666667,6.3,7.5,96,985.56,5.1,85,4.18,0.0,1012.89,299.2
2018-10-25 14:50,50.63042,-96.9807433333333,5.9,7.2,95,985.58,4.9,87,4.19,0.0,1012.91,299.2
2018-10-25 15:00,50.63042,-96.9807566666667,6.9,8.4,102,985.59,5.0,86,4.19,0.0,1012.92,360.0
2018-10-25 15:10,50.6304216666667,-96.98075,7.1,8.3,107,985.60,5.0,86,4.19,0.0,1012.93,360.0
2018-10-25 15:20,50.63042,-96.98075,6.8,8.0,109,985.64,5.2,84,4.20,0.0,1012.96,360.0
2018-10-25 15:30,50.63042,-96.9807533333333,6.9,7.9,106,985.66,5.9,80,4.21,0.0,1012.94,360.0
2018-10-25 15:40,50.63042,-96.98078,7.1,8.3,106,985.72,6.3,79,4.21,0.0,1012.98,360.0
2018-10-25 15:50,50.6304233333333,-96.980775,6.5,7.5,109,985.77,6.3,80,4.21,0.0,1013.03,360.0
2018-10-25 16:00,50.630415,-96.98077,5.9,7.0,113,985.86,5.7,84,4.21,0.0,1013.15,270.0
2018-10-25 16:10,50.6304183333333,-96.9807716666667,6.6,7.8,120,985.93,5.4,86,4.21,0.0,1013.23,270.0
2018-10-25 16:20,50.6304416666667,-96.9807633333333,6.9,8.1,121,985.87,5.3,87,4.22,0.0,1013.16,270.0
2018-10-25 16:30,50.630435,-96.9807566666667,7.1,8.1,109,985.80,5.4,86,4.23,0.0,1013.07,270.0
2018-10-25 16:40,50.63043,-96.9807583333333,6.3,7.4,110,985.82,5.6,85,4.24,0.0,1013.09,270.0
2018-10-25 16:50,50.6304333333333,-96.98076,5.6,7.6,112,985.88,5.5,88,4.25,0.0,1013.16,270.0
2018-10-25 17:00,50.6304333333333,-96.9807633333333,7.0,7.8,106,985.80,5.5,88,4.26,0.0,1013.08,0.0
2018-10-25 17:10,50.63042,-96.9807616666667,7.2,8.0,107,985.75,5.6,88,4.26,0.0,1013.01,0.0
2018-10-25 17:20,50.6304266666667,-96.9807633333333,6.9,7.7,109,985.81,5.6,88,4.26,0.0,1013.03,0.0
2018-10-25 17:30,50.63045,-96.9807733333333,5.8,6.7,103,985.78,5.7,89,4.27,0.0,1012.98,0.0
2018-10-25 17:40,50.6304216666667,-96.980755,5.9,7.7,91,985.65,5.6,91,4.28,0.0,1012.85,0.0
2018-10-25 17:50,50.6304316666667,-96.980755,6.9,7.8,73,985.59,5.4,94,4.28,0.0,1012.83,0.0
2018-10-25 18:00,50.6304333333333,-96.9807616666667,7.9,8.9,59,985.49,5.2,97,4.28,0.0,1012.76,360.0
2018-10-25 18:10,50.6304333333333,-96.98076,8.5,9.1,60,985.42,5.4,94,4.29,0.0,1012.67,360.0
2018-10-25 18:20,50.63043,-96.98076,7.5,8.4,53,985.39,5.9,90,4.31,0.0,1012.62,360.0
2018-10-25 18:30,50.63043,-96.98076,6.3,6.7,57,985.44,5.7,89,4.31,0.0,1012.67,360.0
2018-10-25 18:40,50.6304283333333,-96.9807616666667,6.2,6.8,60,985.37,5.7,89,4.32,0.0,1012.60,360.0
2018-10-25 18:50,50.6304166666667,-96.9807833333333,6.0,7.6,44,985.27,5.4,93,4.32,0.0,1012.51,360.0
2018-10-25 19:00,50.6304266666667,-96.9807683333333,6.3,7.4,38,985.20,5.0,99,4.32,0.0,1012.45,360.0
2018-10-25 19:10,50.63041,-96.9807633333333,8.2,10.0,56,985.04,5.2,98,4.34,0.0,1012.28,360.0
2018-10-25 19:20,50.6304116666667,-96.9807616666667,10.1,11.3,61,984.96,5.6,93,4.34,0.0,1012.17,360.0
2018-10-25 19:30,50.6304133333333,-96.98077,10.2,11.0,61,984.92,5.9,90,4.34,0.0,1012.11,360.0
2018-10-25 19:40,50.6304116666667,-96.9807683333333,10.2,11.0,62,984.90,6.0,89,4.34,0.0,1012.10,360.0
2018-10-25 19:50,50.6304116666667,-96.9807683333333,10.2,11.6,63,984.84,6.0,89,4.36,0.0,1012.06,360.0
2018-10-25 20:00,50.6304133333333,-96.9807683333333,10.8,11.8,62,984.80,6.1,87,4.37,0.0,1012.00,161.1
2018-10-25 20:10,50.630445,-96.9807916666667,10.9,11.8,60,984.72,6.3,85,4.37,0.0,1011.88,161.1
2018-10-25 20:20,50.6304316666667,-96.9807766666667,10.8,12.0,58,984.70,6.3,85,4.37,0.0,1011.87,161.1
2018-10-25 20:30,50.6304266666667,-96.9807683333333,11.2,12.3,62,984.66,6.4,84,4.37,0.0,1011.82,161.1
2018-10-25 20:40,50.6304216666667,-96.9807666666667,10.4,11.3,65,984.68,6.5,83,4.37,0.0,1011.86,161.1
2018-10-25 20:50,50.6304366666667,-96.9807683333333,8.5,10.4,58,984.77,6.4,86,4.37,0.0,1011.97,161.1
2018-10-25 21:00,50.6304316666667,-96.9807666666667,6.6,7.5,43,984.84,5.9,90,4.38,0.0,1012.06,270.0
2018-10-25 21:10,50.6304333333333,-96.98077,6.5,7.0,47,984.87,5.8,91,4.38,0.0,1012.07,270.0
2018-10-25 21:20,50.6304333333333,-96.9807666666667,5.9,6.6,34,984.88,5.7,94,4.39,0.0,1012.08,270.0
2018-10-25 21:30,50.6304316666667,-96.9807633333333,6.6,7.3,31,984.84,5.4,97,4.39,0.0,1012.04,270.0
2018-10-25 21:40,50.6304,-96.98077,7.3,8.7,31,984.76,5.4,98,4.39,0.0,1011.96,270.0
2018-10-25 21:50,50.63041,-96.9807633333333,7.8,9.3,37,984.77,6.0,92,4.39,0.0,1011.94,270.0
2018-10-25 22:00,50.63043,-96.9807666666667,6.8,8.1,41,984.75,5.9,94,4.39,0.0,1011.91,0.0
2018-10-25 22:10,50.6304266666667,-96.9807683333333,6.1,7.1,21,984.80,5.5,98,4.39,0.0,1011.98,0.0
2018-10-25 22:20,50.6304266666667,-96.9807633333333,6.9,7.5,44,984.77,5.7,96,4.41,0.0,1011.94,0.0
2018-10-25 22:30,50.6304283333333,-96.98076,5.7,7.0,43,984.80,5.7,97,4.42,0.0,1011.96,0.0
2018-10-25 22:40,50.6304316666667,-96.9807483333333,4.8,5.6,35,984.90,5.6,99,4.42,0.0,1012.08,0.0
2018-10-25 22:50,50.63044,-96.98075,4.3,5.2,33,984.90,5.5,99,4.43,0.0,1012.11,0.0
2018-10-25 23:00,50.6304383333333,-96.9807533333333,4.5,8.4,67,984.93,5.5,99,4.43,0.0,1012.14,20.1
2018-10-25 23:10,50.630435,-96.980755,9.1,10.2,69,984.93,5.9,96,4.43,0.0,1012.13,20.1
2018-10-25 23:20,50.630435,-96.9807533333333,8.4,9.4,70,984.98,5.9,96,4.41,0.0,1012.19,20.1
2018-10-25 23:30,50.63046,-96.980745,9.1,9.7,68,985.05,6.0,95,4.41,0.0,1012.26,20.1
